When you browse on this site, cookies collect data to enhance your experience and personalize the content and advertising you see.
Visit our Privacy Policy to learn more. By continuing to use the site, you agree to this use of cookies and data.
  • In Deutschland
  • Länderverzeichnis
  • Für 7 Tage
  • Wassertemperatur
  • Wetterkarte
  • Widgets
  • user-avatar
    Anmelden

    Stündliche Wetter Kornilova

    Heute, 22 Oktober, Dienstag

    Zeit Temperatur Niederschläge Wind Luftdruck Luftfeuchtigkeit
    00:00 +1°C° 0.1 mm 4 m/S 744 mmHg 95%
    01:00 +2°C° 0.1 mm 5 m/S 743 mmHg 94%
    02:00 +2°C° 0.2 mm 5 m/S 742 mmHg 93%
    03:00 +3°C° 0.2 mm 5 m/S 741 mmHg 92%
    04:00 +3°C° 0 mm 5 m/S 740 mmHg 89%
    05:00 +4°C° 0.4 mm 6 m/S 739 mmHg 89%
    06:00 +4°C° 0.4 mm 6 m/S 738 mmHg 89%
    07:00 +5°C° 0.4 mm 7 m/S 738 mmHg 89%
    08:00 +5°C° 0.2 mm 6 m/S 737 mmHg 89%
    09:00 +5°C° 0.2 mm 6 m/S 737 mmHg 89%
    10:00 +6°C° 0.2 mm 5 m/S 737 mmHg 90%
    11:00 +6°C° 0.1 mm 5 m/S 738 mmHg 85%
    12:00 +5°C° 0.1 mm 5 m/S 738 mmHg 81%
    13:00 +3°C° 0.1 mm 5 m/S 738 mmHg 77%
    14:00 +3°C° 0 mm 5 m/S 739 mmHg 78%
    15:00 +3°C° 0 mm 4 m/S 739 mmHg 79%
    16:00 +1°C° 0 mm 4 m/S 740 mmHg 80%
    17:00 +1°C° 0 mm 4 m/S 740 mmHg 82%
    18:00 0°C° 0 mm 4 m/S 741 mmHg 84%
    19:00 -1°C° 0 mm 4 m/S 741 mmHg 87%
    20:00 -1°C° 0 mm 4 m/S 741 mmHg 87%
    21:00 -1°C° 0 mm 4 m/S 741 mmHg 87%
    22:00 -1°C° 0 mm 3 m/S 741 mmHg 88%
    23:00 -2°C° 0 mm 4 m/S 741 mmHg 87%

    Morgen, 23 Oktober, Mittwoch

    Zeit Temperatur Niederschläge Wind Luftdruck Luftfeuchtigkeit
    00:00 -3°C° 0 mm 4 m/S 741 mmHg 87%
    01:00 -3°C° 0 mm 4 m/S 741 mmHg 86%
    02:00 -4°C° 0 mm 4 m/S 742 mmHg 86%
    03:00 -4°C° 0 mm 4 m/S 742 mmHg 86%
    04:00 -4°C° 0 mm 3 m/S 742 mmHg 86%
    05:00 -4°C° 0 mm 3 m/S 742 mmHg 86%
    06:00 -4°C° 0 mm 4 m/S 742 mmHg 86%
    07:00 -4°C° 0 mm 4 m/S 742 mmHg 86%
    08:00 -3°C° 0 mm 4 m/S 742 mmHg 81%
    09:00 -3°C° 0 mm 4 m/S 742 mmHg 77%
    10:00 -2°C° 0 mm 4 m/S 742 mmHg 73%
    11:00 -1°C° 0 mm 5 m/S 741 mmHg 72%
    12:00 -1°C° 0 mm 5 m/S 740 mmHg 71%
    13:00 0°C° 0 mm 5 m/S 740 mmHg 71%
    14:00 0°C° 0 mm 5 m/S 739 mmHg 73%
    15:00 0°C° 0 mm 5 m/S 739 mmHg 76%
    16:00 0°C° 0 mm 5 m/S 739 mmHg 79%
    17:00 +1°C° 0 mm 5 m/S 738 mmHg 82%
    18:00 +1°C° 0 mm 5 m/S 737 mmHg 85%
    19:00 +2°C° 0 mm 6 m/S 737 mmHg 88%
    20:00 +2°C° 0 mm 6 m/S 736 mmHg 87%
    21:00 +3°C° 0 mm 6 m/S 735 mmHg 85%
    22:00 +3°C° 0 mm 6 m/S 735 mmHg 84%
    23:00 +4°C° 0 mm 6 m/S 734 mmHg 85%

    übermorgen, 24 Oktober, Donnerstag

    Zeit Temperatur Niederschläge Wind Luftdruck Luftfeuchtigkeit
    00:00 +5°C° 0 mm 5 m/S 734 mmHg 86%
    01:00 +5°C° 0 mm 5 m/S 734 mmHg 87%
    02:00 +5°C° 0.2 mm 4 m/S 735 mmHg 88%
    03:00 +4°C° 0.2 mm 4 m/S 735 mmHg 89%
    04:00 +4°C° 0.2 mm 3 m/S 736 mmHg 89%
    05:00 +3°C° 0 mm 4 m/S 736 mmHg 89%
    06:00 +1°C° 0 mm 4 m/S 737 mmHg 90%
    07:00 0°C° 0 mm 4 m/S 738 mmHg 90%
    08:00 0°C° 0 mm 4 m/S 738 mmHg 85%
    09:00 +1°C° 0 mm 4 m/S 739 mmHg 81%
    10:00 +1°C° 0 mm 4 m/S 740 mmHg 77%
    11:00 +3°C° 0 mm 4 m/S 740 mmHg 76%
    12:00 +3°C° 0 mm 4 m/S 740 mmHg 75%
    13:00 +2°C° 0 mm 5 m/S 741 mmHg 75%
    14:00 +3°C° 0 mm 4 m/S 741 mmHg 76%
    15:00 +1°C° 0 mm 4 m/S 741 mmHg 77%
    16:00 +2°C° 0 mm 3 m/S 741 mmHg 78%
    17:00 +2°C° 0 mm 3 m/S 742 mmHg 80%
    18:00 +1°C° 0 mm 3 m/S 742 mmHg 83%
    19:00 +1°C° 0 mm 3 m/S 743 mmHg 86%
    20:00 0°C° 0 mm 3 m/S 743 mmHg 88%
    21:00 0°C° 0 mm 3 m/S 743 mmHg 90%
    22:00 -1°C° 0 mm 3 m/S 743 mmHg 93%
    23:00 -1°C° 0 mm 3 m/S 743 mmHg 92%

    25 Oktober, Freitag

    Zeit Temperatur Niederschläge Wind Luftdruck Luftfeuchtigkeit
    00:00 -1°C° 0 mm 3 m/S 743 mmHg 92%
    01:00 -1°C° 0 mm 3 m/S 743 mmHg 92%
    02:00 -1°C° 0 mm 3 m/S 743 mmHg 90%
    03:00 -1°C° 0 mm 3 m/S 743 mmHg 89%
    04:00 -1°C° 0 mm 3 m/S 744 mmHg 87%
    05:00 0°C° 0 mm 3 m/S 744 mmHg 88%
    06:00 0°C° 0 mm 3 m/S 744 mmHg 89%
    07:00 0°C° 0 mm 3 m/S 744 mmHg 89%
    08:00 0°C° 0.2 mm 3 m/S 744 mmHg 91%
    09:00 0°C° 0.2 mm 4 m/S 744 mmHg 92%
    10:00 0°C° 0.2 mm 4 m/S 744 mmHg 93%
    11:00 0°C° 0.2 mm 4 m/S 743 mmHg 94%
    12:00 0°C° 0.2 mm 4 m/S 743 mmHg 94%
    13:00 0°C° 0.2 mm 4 m/S 743 mmHg 95%
    14:00 0°C° 0 mm 4 m/S 743 mmHg 94%
    15:00 +1°C° 0 mm 4 m/S 743 mmHg 93%
    16:00 +1°C° 0 mm 4 m/S 743 mmHg 92%
    17:00 +2°C° 0 mm 3 m/S 743 mmHg 92%
    18:00 +2°C° 0 mm 3 m/S 743 mmHg 92%
    19:00 +2°C° 0 mm 3 m/S 743 mmHg 92%
    20:00 +3°C° 0 mm 3 m/S 743 mmHg 91%
    21:00 +3°C° 0 mm 4 m/S 743 mmHg 91%
    22:00 +3°C° 0 mm 4 m/S 743 mmHg 90%
    23:00 +3°C° 0 mm 4 m/S 743 mmHg 90%

    26 Oktober, Samstag

    Zeit Temperatur Niederschläge Wind Luftdruck Luftfeuchtigkeit
    00:00 +3°C° 0 mm 4 m/S 743 mmHg 89%
    01:00 +3°C° 0 mm 4 m/S 744 mmHg 89%
    02:00 +3°C° 0 mm 3 m/S 744 mmHg 89%
    03:00 +3°C° 0 mm 3 m/S 745 mmHg 89%
    04:00 +2°C° 0 mm 3 m/S 746 mmHg 89%
    05:00 +3°C° 0 mm 2 m/S 746 mmHg 91%
    06:00 +3°C° 0 mm 2 m/S 746 mmHg 92%
    07:00 +3°C° 0 mm 2 m/S 746 mmHg 94%
    08:00 +4°C° 0 mm 1 m/S 746 mmHg 94%
    09:00 +4°C° 0 mm 1 m/S 747 mmHg 93%
    10:00 +5°C° 0 mm 1 m/S 747 mmHg 93%
    11:00 +4°C° 0.1 mm 2 m/S 747 mmHg 92%
    12:00 +5°C° 0.1 mm 2 m/S 747 mmHg 90%
    13:00 +4°C° 0.1 mm 3 m/S 746 mmHg 89%
    14:00 +4°C° 0 mm 3 m/S 746 mmHg 87%
    15:00 +4°C° 0 mm 3 m/S 745 mmHg 86%
    16:00 +5°C° 0 mm 4 m/S 745 mmHg 84%
    17:00 +5°C° 0 mm 4 m/S 744 mmHg 84%
    18:00 +5°C° 0 mm 4 m/S 744 mmHg 85%
    19:00 +5°C° 0 mm 5 m/S 743 mmHg 85%
    20:00 +6°C° 0 mm 5 m/S 743 mmHg 85%
    21:00 +6°C° 0 mm 5 m/S 742 mmHg 85%
    22:00 +7°C° 0 mm 5 m/S 742 mmHg 86%
    23:00 +7°C° 0 mm 5 m/S 742 mmHg 85%

    27 Oktober, Sonntag

    Zeit Temperatur Niederschläge Wind Luftdruck Luftfeuchtigkeit
    00:00 +8°C° 0 mm 5 m/S 741 mmHg 84%
    01:00 +8°C° 0 mm 5 m/S 741 mmHg 84%
    02:00 +8°C° 0 mm 5 m/S 741 mmHg 84%
    03:00 +7°C° 0 mm 5 m/S 741 mmHg 84%
    04:00 +7°C° 0 mm 5 m/S 741 mmHg 85%
    05:00 +7°C° 0 mm 5 m/S 740 mmHg 84%
    06:00 +7°C° 0 mm 5 m/S 740 mmHg 83%
    07:00 +7°C° 0 mm 5 m/S 740 mmHg 82%
    08:00 +8°C° 0 mm 6 m/S 740 mmHg 80%
    09:00 +8°C° 0 mm 6 m/S 740 mmHg 78%
    10:00 +8°C° 0 mm 6 m/S 740 mmHg 76%
    11:00 +9°C° 0 mm 6 m/S 739 mmHg 72%
    12:00 +10°C° 0 mm 6 m/S 739 mmHg 68%
    13:00 +11°C° 0 mm 6 m/S 738 mmHg 63%
    14:00 +10°C° 0 mm 6 m/S 738 mmHg 65%
    15:00 +10°C° 0 mm 7 m/S 737 mmHg 67%
    16:00 +10°C° 0 mm 7 m/S 737 mmHg 69%
    17:00 +10°C° 0 mm 7 m/S 737 mmHg 70%
    18:00 +9°C° 0 mm 7 m/S 736 mmHg 72%
    19:00 +9°C° 0 mm 7 m/S 736 mmHg 73%
    20:00 +9°C° 0 mm 7 m/S 736 mmHg 73%
    21:00 +9°C° 0 mm 7 m/S 735 mmHg 73%
    22:00 +8°C° 0 mm 7 m/S 735 mmHg 73%
    23:00 +8°C° 0 mm 7 m/S 735 mmHg 73%

    28 Oktober, Montag

    Zeit Temperatur Niederschläge Wind Luftdruck Luftfeuchtigkeit
    00:00 +8°C° 0 mm 7 m/S 734 mmHg 74%
    01:00 +8°C° 0 mm 7 m/S 734 mmHg 74%
    02:00 +8°C° 0 mm 7 m/S 733 mmHg 75%
    03:00 +8°C° 0 mm 7 m/S 733 mmHg 75%
    04:00 +8°C° 0 mm 7 m/S 733 mmHg 76%
    05:00 +8°C° 0.1 mm 7 m/S 733 mmHg 76%
    06:00 +8°C° 0.1 mm 7 m/S 732 mmHg 77%
    07:00 +8°C° 0.1 mm 7 m/S 732 mmHg 77%
    08:00 +8°C° 0.1 mm 6 m/S 732 mmHg 78%
    09:00 +8°C° 0.1 mm 6 m/S 732 mmHg 79%
    10:00 +8°C° 0.1 mm 6 m/S 731 mmHg 80%
    11:00 +8°C° 0.3 mm 6 m/S 731 mmHg 81%
    12:00 +7°C° 0.3 mm 5 m/S 731 mmHg 83%
    13:00 +7°C° 0.3 mm 4 m/S 731 mmHg 85%
    14:00 +7°C° 0.4 mm 4 m/S 731 mmHg 86%
    15:00 +7°C° 0.4 mm 3 m/S 731 mmHg 88%
    16:00 +6°C° 0.4 mm 2 m/S 731 mmHg 90%
    17:00 +6°C° 0.4 mm 2 m/S 731 mmHg 89%
    18:00 +5°C° 0.4 mm 2 m/S 731 mmHg 88%
    19:00 +4°C° 0.4 mm 3 m/S 731 mmHg 88%
    20:00 +4°C° 0.1 mm 2 m/S 731 mmHg 89%
    21:00 +4°C° 0.1 mm 2 m/S 730 mmHg 90%
    22:00 +3°C° 0.1 mm 2 m/S 730 mmHg 90%
    23:00 +3°C° 0.1 mm 2 m/S 730 mmHg 90%
    Mehr zeigen